Flag for Netherlands Weather past 2 weeks in Maastricht, Netherlands

Now
70 °F

Mild.


Feels Like: 70 °F
Forecast: 74 / 95 °F
Wind: 3 mph from Northwest

Location: Maastricht Airport Zuid Limburg

Current Time: Jul 3, 2015 at 8:53:19 AM

Latest Report: Jul 3, 2015 at 7:55 AM


Visibility: N/A

Pressure: 30.24 "Hg

Humidity: 83%

Dew point: 64 °F

Location of MaastrichtLocation

Historic Weather in Maastricht — Graph

°F

Maastricht temperature yesterday

Maximum temperature yesterday: 100 °F (at 3:55 PM)
Minimum temperature yesterday: 73 °F (at 3:25 AM)
Average temperature yesterday: 83 °F

Past Weeks' High & Low Weather Summary

 TemperatureHumidityPressure
High100 °F (Jul 2, 3:55 PM)100% (Jun 18, 7:55 AM)30.24 "Hg (Jun 18, 7:55 AM)
Low48 °F (Jun 22, 11:25 PM)24% (Jul 2, 4:25 PM)29.71 "Hg (Jun 22, 6:55 PM)
Average65 °F68%30.07 "Hg
* Reported Jun 18 7:25 AM — Jul 3 7:55 AM, Maastricht, Weather by CustomWeather, © 2015

Note: Actual official high and low records may vary slightly from our data, if they occured in-between our weather recording intervals... More about our weather records

Advertising

Maastricht weather history for previous 24 hours

 ConditionsComfort  
Time TempWeatherWind HumidityBarometerVisibility
7:55 AM
Fri, Jul 3
70 °FMild.3 mph83%30.24 "HgN/A
7:25 AM70 °FClear.3 mph78%30.24 "HgN/A
6:55 AM68 °FClear.2 mph83%30.24 "HgN/A
6:25 AM66 °FClear.3 mph88%30.24 "HgN/A
5:55 AM66 °FClear.1 mph88%30.24 "HgN/A
5:25 AM66 °FClear.2 mph88%30.24 "HgN/A
4:55 AM66 °FClear.2 mph88%30.24 "HgN/A
4:25 AM68 °FPassing clouds.5 mph83%30.24 "HgN/A
3:55 AM68 °FClear.5 mph83%30.21 "HgN/A
3:25 AM68 °FPassing clouds.5 mph83%30.21 "HgN/A
2:55 AM68 °FPassing clouds.3 mph83%30.21 "HgN/A
2:25 AM68 °FPassing clouds.3 mph83%30.21 "HgN/A
1:55 AM70 °FPassing clouds.6 mph78%30.21 "HgN/A
1:25 AM72 °FPassing clouds.8 mph73%30.18 "HgN/A
12:55 AM72 °FPassing clouds.6 mph73%30.18 "HgN/A
12:25 AM72 °FMild.8 mph73%30.18 "HgN/A
11:55 PM
Thu, Jul 2
73 °FMild.6 mph69%30.15 "HgN/A
11:25 PM75 °FClear.6 mph69%30.15 "HgN/A
10:55 PM75 °FClear.7 mph69%30.15 "HgN/A
10:25 PM75 °FClear.7 mph69%30.12 "HgN/A
9:55 PM77 °FClear.7 mph65%30.12 "HgN/A
9:25 PM79 °FClear.8 mph61%30.09 "HgN/A
8:55 PM81 °FClear.7 mph62%30.09 "HgN/A
8:25 PM82 °FPassing clouds.9 mph58%30.09 "HgN/A
7:55 PM82 °FClear.8 mph62%30.07 "HgN/A
7:25 PM82 °FClear.13 mph62%30.07 "HgN/A
6:55 PM84 °FClear.13 mph58%30.07 "HgN/A
6:25 PM86 °FWarm.14 mph55%30.04 "HgN/A
5:55 PM90 °FHot.13 mph52%30.04 "HgN/A
5:25 PM97 °FExtremely hot.12 mph28%30.01 "HgN/A
4:55 PM99 °FExtremely hot.12 mph25%30.01 "HgN/A
4:25 PM100 °FExtremely hot.14 mph24%30.01 "HgN/A
3:55 PM100 °FExtremely hot.12 mph25%30.01 "HgN/A
3:25 PM97 °FExtremely hot.9 mph28%30.01 "HgN/A
2:55 PM99 °FExtremely hot.10 mph31%30.01 "HgN/A
2:25 PM97 °FExtremely hot.9 mph32%30.01 "HgN/A
1:55 PM97 °FExtremely hot.7 mph34%30.04 "HgN/A
1:25 PM95 °FExtremely hot.3 mph39%30.04 "HgN/A
12:55 PM93 °FExtremely hot.5 mph41%30.04 "HgN/A
12:25 PM91 °FHot.3 mph41%30.04 "HgN/A
11:55 AM90 °FHot.3 mph46%30.04 "HgN/A
11:25 AM88 °FWarm.5 mph46%30.04 "HgN/A
10:55 AM86 °FWarm.7 mph49%30.04 "HgN/A
10:25 AM86 °FWarm.3 mph43%30.07 "HgN/A
9:55 AM84 °FWarm.3 mph48%30.04 "HgN/A
9:25 AM82 °FClear.2 mph51%30.04 "HgN/A
8:55 AM81 °FWarm.2 mph51%30.04 "HgN/A
8:25 AM79 °FWarm.No wind54%30.04 "HgN/A
Weather by CustomWeather, © 2015

See weather overviewHow to use our weather pages